Alton, IN

2:23 PM EST on February 27, 2017 (GMT -0500)
Central2E | | Change Station

Elev 669 ft 38.10 °N, 86.13 °W | Updated 9 minutes ago

Overcast
Overcast
51.9 °F
Feels Like 51.9 °F
N
3.0
Wind Variable Wind from ENE
Gusts 7.0 mph

Today
High -- | Low -- °F
--% Chance of Precip.
Yesterday
High -- | Low -- °F
Precip. -- in
Pressure 30.17 in
Visibility 10.0 miles
Clouds Clear
Dew Point 46 °F
Humidity 81%
Rainfall 0.07 in
Snow Depth Not available.
7:19 AM 6:37 PM
New Moon, 2% visible
METAR KFTK 271858Z AUTO 12007KT 10SM CLR 12/06 A3015 RMK AO2 SLP214 T01200058
Pressure 30.17 in
Visibility 10.0 miles
Clouds Clear
Dew Point 46 °F
Humidity 81%
Rainfall 0.07 in
Snow Depth Not available.
7:19 AM 6:37 PM
New Moon, 2% visible
METAR KFTK 271858Z AUTO 12007KT 10SM CLR 12/06 A3015 RMK AO2 SLP214 T01200058

Get Your Daily Forecast Email!

Thanks for signing up!

Be on the lookout for a verification email in your inbox.

You'll start receiving the daily forecast at 8 AM.

×

10-Day Weather Forecast

Almanac

Astronomy

Feb. 27, 2017 Rise Set
Actual Time
Civil Twilight
Nautical Twilight
Astronomical Twilight
Moon
Length of Visible Light
Length of Day
Tomorrow will be .
, % of the Moon is Illuminated

Today's Extremes

State Highs State Lows

Community

WunderPhotos

Upload Photos

1,962,540 photos uploaded!

WunderBlog® & News

Nearby

Air Quality

  Air Quality AQ Index Pollutant
Not available.

Snow Depth

Station Depth Elevation

Earthquake Activity

City Distance Mag. Time & Date
Minimum magnitude displayed is 2.5.

Coastal Water Temperatures

Place Temperature

Stations

Nearby Weather Stations

Station Location Temp. Windchill Dew Point Humidity Wind Precip. Elev Updated Type
                   

Watches & Warnings

There are currently no watches in effect.